Temp
66 65 64 65 65 64 64 63 61 60 60 60 61 62 66 66 65 63 66 66 68 72 74 74 73 74 74 73 73 72 72 71 70 70 70 69 70 70 70 69 69 69 69
66 66 65 66 63 63 63 63 62 59 59 59 59 59 64 66 66 62 63 67 68 69 72 73 74 74 74 74 73 72 70 71 70 70 69 69 69 69 69 69 68 68 68
67 66 64 64 63 62 61 61 60 59 58 60 58 58 60 60 63 64 62 62 67 67 69 71 72 73 74 74 74 73 70 70 69 69 69 68 69 68 68 68 67 67 67
68 66 65 63 62 61 61 61 60 59 58 58 57 57 58 59 60 61 62 61 61 65 67 70 71 73 73 74 73 74 70 70 69 69 69 68 68 68 68 67 67 66 66
68 65 65 63 61 61 61 61 61 60 57 57 61 58 57 58 60 64 64 63 62 60 61 66 68 69 70 72 73 73 71 70 68 69 68 68 67 67 67 66 66 66 65
67 64 64 63 61 60 61 61 61 60 59 59 63 58 57 60 61 62 63 63 63 61 60 63 61 63 66 69 72 70 71 70 69 69 68 68 67 67 66 66 66 65 65
64 64 64 63 61 61 61 61 60 61 58 60 56 55 54 57 59 60 61 61 62 61 60 59 60 62 64 67 68 69 71 70 70 69 68 67 68 66 66 66 65 65 64
63 64 64 62 61 61 60 61 61 61 60 60 57 54 49 52 56 57 58 59 59 59 60 59 60 62 62 62 62 66 68 70 70 69 68 68 67 67 66 66 65 65 64
60 62 63 63 62 62 60 61 61 61 58 58 60 55 49 48 50 52 54 56 57 56 58 60 58 60 61 61 62 62 65 67 69 70 69 68 67 67 67 66 66 65 64
60 60 62 62 62 62 61 61 62 62 61 57 58 60 56 54 50 49 51 51 53 54 54 56 56 57 58 59 60 59 61 63 68 70 70 69 68 67 67 67 66 65 64
60 60 61 61 61 61 61 61 61 61 62 59 59 54 53 53 51 52 51 51 50 51 52 53 55 56 58 57 58 59 61 64 68 69 69 69 69 68 68 67 67 66 65
55 59 60 61 61 61 61 60 61 61 61 61 60 58 55 53 51 51 48 53 53 50 51 51 52 53 54 55 57 58 60 63 66 68 69 69 68 68 68 67 67 66 65
46 57 60 62 62 61 61 61 61 60 61 60 59 58 58 57 54 52 52 49 50 50 50 51 51 51 53 54 55 56 58 61 64 67 69 70 68 67 67 67 68 67 65
42 46 58 62 63 62 61 61 61 61 61 60 59 59 58 57 56 55 53 51 47 48 48 51 52 52 51 52 53 54 54 58 61 64 67 68 67 65 65 66 66 66 65
42 44 49 60 61 62 61 60 61 60 61 60 60 59 58 58 57 57 55 56 53 46 48 50 50 52 54 51 51 51 52 55 59 61 62 62 62 62 63 64 64 64 64
39 42 46 58 59 60 60 60 61 61 60 60 60 59 59 59 58 57 56 56 56 52 49 53 50 50 51 51 51 51 52 52 56 59 59 59 59 59 60 61 61 62 62
37 39 44 47 58 59 59 59 60 60 59 59 59 59 58 59 57 56 55 55 54 54 52 51 51 49 47 47 48 48 49 49 50 55 58 58 58 58 58 59 59 60 60
36 38 41 45 56 58 59 59 58 59 59 58 57 57 57 56 56 56 55 54 54 54 52 52 49 46 47 45 46 46 47 49 49 52 55 56 57 57 57 58 57 58 58
34 36 38 39 43 56 58 58 59 58 58 58 57 57 56 56 55 55 55 54 54 53 52 50 49 46 45 44 43 45 45 46 47 50 53 54 56 56 56 57 57 57 56
33 33 35 37 39 44 56 57 56 56 56 56 56 56 56 55 56 54 54 54 52 52 51 52 49 45 44 42 43 43 43 40 44 47 49 51 53 54 55 56 55 54 54
32 33 34 35 37 42 46 54 55 55 54 54 54 54 55 54 52 54 55 54 54 52 51 50 48 45 44 42 42 44 43 44 40 42 40 43 45 47 51 53 53 51 53
31 32 32 32 34 37 43 46 51 52 53 53 53 53 53 49 50 52 52 52 54 53 52 51 49 45 47 45 45 45 43 39 39 40 40 45 42 43 46 48 52 53 52
30 31 31 32 33 34 40 45 46 46 47 49 51 52 51 52 51 53 51 51 51 52 53 53 51 49 49 48 45 42 41 40 45 42 39 36 38 40 44 46 50 51 52
29 30 31 32 32 34 39 44 44 44 45 45 46 47 50 50 51 51 51 50 50 50 50 51 51 52 52 51 50 51 48 45 41 40 40 37 36 38 40 41 48 50 50
30 29 30 31 32 33 38 43 43 42 43 43 44 45 46 47 48 49 50 49 49 50 50 49 50 50 50 50 50 48 43 40 39 38 38 38 37 35 37 39 41 48 49
29 31 29 31 33 33 39 42 42 41 41 41 43 44 45 45 46 47 47 48 47 48 48 48 48 47 48 49 48 49 47 41 39 34 38 37 34 35 35 34 35 39 44
MSLP
1012.22 1012.78 1013.64 1014.37 1014.89 1015.28 1015.66 1016.33 1016.91 1017.43 1017.89 1018.13 1018.41 1018.48 1018.64 1019.00 1019.18 1019.34 1019.34 1019.35 1019.57 1019.49 1019.77 1020.25 1020.68 1020.99 1021.23 1021.66 1022.10 1022.56 1022.81 1023.13 1023.48 1023.82 1023.95 1024.40 1024.48 1024.54 1024.65 1024.83 1024.89 1024.98 1025.01
1011.37 1012.87 1013.30 1013.87 1014.53 1015.13 1015.46 1015.89 1016.66 1017.34 1017.86 1018.21 1018.55 1018.64 1018.46 1018.85 1019.20 1019.44 1019.55 1019.63 1019.76 1020.17 1020.19 1020.46 1020.66 1021.05 1021.24 1021.73 1022.08 1022.61 1023.10 1023.20 1023.61 1024.02 1024.26 1024.55 1024.66 1024.72 1024.96 1025.09 1025.22 1025.27 1025.30
1011.73 1011.92 1012.87 1013.64 1014.27 1014.83 1015.35 1015.87 1016.59 1017.26 1017.93 1018.24 1018.70 1018.77 1018.63 1018.96 1019.13 1019.46 1019.73 1019.99 1020.01 1020.06 1020.39 1020.61 1020.94 1021.09 1021.44 1021.67 1021.94 1022.40 1023.18 1023.43 1023.74 1024.21 1024.49 1024.74 1024.81 1024.96 1025.13 1025.31 1025.48 1025.54 1025.62
1011.40 1011.97 1012.76 1013.37 1013.90 1014.70 1015.18 1015.84 1016.44 1017.27 1017.78 1018.16 1018.53 1018.91 1018.81 1019.06 1019.19 1019.36 1019.74 1020.05 1020.25 1020.29 1020.48 1020.71 1020.92 1021.05 1021.33 1021.41 1021.93 1022.25 1023.06 1023.40 1023.86 1024.20 1024.55 1024.82 1024.97 1025.11 1025.26 1025.48 1025.65 1025.78 1025.86
1011.33 1011.89 1012.53 1012.99 1013.52 1014.23 1015.05 1015.64 1016.27 1016.80 1017.66 1018.17 1018.49 1018.88 1018.94 1019.19 1019.24 1019.29 1019.48 1019.77 1020.17 1020.35 1020.66 1020.74 1020.74 1020.93 1021.26 1021.32 1021.60 1022.04 1022.76 1023.00 1023.89 1024.15 1024.54 1024.85 1025.07 1025.22 1025.35 1025.56 1025.71 1025.88 1026.04
1010.81 1011.58 1012.21 1012.77 1013.24 1013.93 1014.73 1015.36 1015.93 1016.52 1017.02 1017.73 1018.33 1018.86 1019.09 1019.25 1019.13 1019.19 1019.30 1019.63 1019.83 1020.15 1020.47 1020.64 1020.60 1021.14 1021.25 1021.42 1021.58 1022.04 1022.49 1022.86 1023.32 1023.88 1024.37 1024.75 1025.06 1025.26 1025.45 1025.61 1025.75 1025.94 1026.07
1010.14 1011.04 1011.77 1012.36 1012.93 1013.51 1013.93 1014.63 1015.40 1016.17 1016.92 1017.41 1018.46 1019.13 1019.37 1019.42 1019.41 1019.32 1019.32 1019.53 1019.78 1020.07 1020.33 1020.57 1020.86 1021.03 1021.13 1021.41 1021.54 1021.87 1022.25 1022.74 1023.11 1023.60 1024.13 1024.54 1024.80 1025.19 1025.46 1025.63 1025.83 1026.04 1026.23
1009.57 1010.22 1011.00 1011.74 1012.30 1013.02 1013.69 1014.15 1014.58 1015.39 1016.29 1016.70 1017.34 1018.49 1019.60 1019.86 1019.53 1019.60 1019.70 1019.76 1019.80 1019.86 1020.18 1020.40 1020.64 1020.75 1020.92 1021.40 1021.63 1021.88 1022.27 1022.57 1022.91 1023.21 1023.82 1024.26 1024.62 1024.99 1025.26 1025.57 1025.84 1026.03 1026.24
1009.70 1009.49 1010.09 1010.81 1011.61 1012.10 1012.66 1013.22 1013.82 1014.44 1015.18 1016.32 1016.07 1016.88 1018.77 1019.12 1019.53 1019.66 1019.68 1019.76 1019.88 1020.05 1020.16 1020.00 1020.51 1020.63 1020.78 1021.07 1021.47 1021.73 1022.05 1022.40 1022.74 1023.08 1023.47 1024.01 1024.39 1024.79 1025.08 1025.38 1025.68 1025.91 1026.14
1009.39 1009.34 1009.54 1009.96 1010.59 1011.19 1011.79 1012.34 1012.88 1013.40 1014.09 1015.03 1015.95 1016.05 1016.62 1017.33 1018.71 1019.74 1019.93 1019.77 1019.85 1019.97 1020.09 1019.96 1020.29 1020.50 1020.68 1020.91 1021.08 1021.41 1021.80 1022.17 1022.52 1022.75 1023.06 1023.56 1023.97 1024.45 1024.77 1025.06 1025.31 1025.58 1025.86
1009.44 1009.04 1009.22 1009.47 1009.99 1010.29 1010.81 1011.51 1012.10 1012.64 1013.09 1013.86 1014.65 1015.50 1016.65 1017.23 1017.42 1018.17 1018.88 1019.61 1019.90 1019.80 1019.99 1020.19 1019.91 1020.21 1020.39 1020.69 1020.95 1021.11 1021.44 1021.94 1022.31 1022.54 1022.77 1023.05 1023.40 1023.86 1024.33 1024.63 1024.91 1025.20 1025.50
1009.87 1008.94 1008.81 1008.90 1009.23 1009.65 1009.80 1010.42 1011.13 1011.66 1012.24 1012.97 1013.86 1014.45 1015.24 1016.18 1017.15 1017.54 1018.38 1018.53 1019.00 1019.63 1019.85 1020.06 1020.02 1020.03 1020.13 1020.39 1020.57 1020.76 1020.95 1021.42 1021.86 1022.16 1022.33 1022.68 1022.98 1023.20 1023.53 1024.04 1024.42 1024.79 1025.09
1010.40 1008.87 1008.27 1008.16 1008.41 1008.83 1009.11 1009.44 1010.17 1010.85 1011.40 1012.03 1012.94 1013.63 1014.05 1015.03 1015.79 1016.74 1017.70 1018.53 1018.91 1019.63 1019.88 1019.89 1019.76 1019.76 1019.86 1020.07 1020.26 1020.40 1020.65 1020.88 1021.30 1021.64 1021.90 1022.05 1022.34 1022.72 1023.07 1023.38 1023.66 1024.10 1024.51
1010.90 1009.75 1008.22 1007.30 1007.42 1007.78 1008.21 1008.63 1009.17 1009.81 1010.48 1011.29 1011.97 1012.67 1013.64 1014.44 1015.20 1015.74 1016.27 1017.01 1018.19 1019.19 1019.65 1019.54 1019.34 1019.37 1019.47 1019.60 1019.87 1020.24 1020.45 1020.60 1020.83 1021.18 1021.48 1021.64 1021.83 1022.16 1022.50 1022.83 1023.11 1023.43 1023.83
1011.11 1009.78 1008.71 1006.79 1006.69 1006.86 1007.24 1007.71 1008.29 1008.91 1009.63 1010.43 1011.07 1011.79 1012.77 1013.61 1014.41 1015.03 1015.49 1015.69 1016.80 1018.10 1018.79 1018.85 1019.30 1018.78 1018.73 1019.07 1019.44 1019.88 1020.23 1020.39 1020.59 1020.90 1021.15 1021.37 1021.55 1021.73 1021.93 1022.28 1022.60 1022.80 1023.08
1011.07 1009.68 1008.58 1006.44 1006.17 1006.12 1006.36 1006.59 1007.26 1008.08 1008.84 1009.52 1010.27 1011.13 1011.94 1012.67 1013.42 1014.21 1014.68 1015.24 1015.81 1016.53 1017.63 1017.97 1018.23 1018.35 1018.58 1018.31 1018.71 1019.21 1019.65 1020.09 1020.31 1020.49 1020.78 1020.99 1021.13 1021.34 1021.54 1021.78 1022.02 1022.12 1022.46
1011.16 1009.46 1008.38 1006.56 1005.22 1005.22 1005.46 1005.62 1006.38 1007.15 1007.94 1008.69 1009.41 1010.10 1010.94 1011.65 1012.45 1013.35 1014.02 1014.73 1015.42 1016.03 1016.54 1017.34 1017.43 1017.71 1018.39 1018.37 1018.45 1018.78 1019.31 1019.79 1020.01 1020.05 1020.13 1020.30 1020.59 1020.87 1021.03 1021.26 1021.41 1021.55 1021.83
1010.84 1009.95 1008.32 1006.50 1004.41 1004.34 1004.42 1004.91 1005.63 1006.32 1007.01 1007.81 1008.59 1009.42 1010.21 1010.97 1011.74 1012.59 1013.31 1013.86 1014.67 1015.28 1016.14 1016.71 1016.90 1017.39 1017.53 1017.98 1018.18 1018.58 1018.93 1019.19 1019.41 1019.42 1019.52 1019.72 1019.89 1020.11 1020.30 1020.46 1020.68 1020.98 1021.08
1011.40 1010.65 1007.86 1007.00 1005.32 1003.43 1003.34 1003.97 1004.74 1005.46 1006.29 1007.02 1007.87 1008.69 1009.48 1010.26 1011.09 1011.85 1012.55 1013.17 1013.97 1014.74 1015.21 1015.73 1016.24 1016.92 1017.40 1017.85 1018.35 1018.42 1018.58 1018.70 1018.75 1018.72 1018.93 1019.05 1019.17 1019.26 1019.38 1019.59 1019.90 1020.06 1020.30
1011.74 1009.88 1008.42 1007.22 1005.95 1004.62 1002.82 1003.24 1003.97 1004.93 1005.65 1006.46 1007.37 1008.18 1008.90 1009.56 1010.25 1011.02 1011.78 1012.51 1013.31 1013.95 1014.60 1015.35 1016.00 1016.84 1017.39 1017.98 1018.04 1018.08 1018.20 1018.29 1018.30 1018.27 1018.38 1018.51 1018.53 1018.58 1018.81 1018.84 1018.75 1019.01 1019.30
1011.35 1010.37 1009.45 1007.53 1006.46 1005.46 1004.41 1002.62 1003.35 1004.28 1005.25 1006.15 1006.88 1007.81 1008.52 1009.07 1009.76 1010.39 1011.09 1011.88 1012.73 1013.39 1013.92 1014.63 1015.52 1016.38 1017.11 1017.66 1017.65 1017.25 1017.64 1017.68 1017.88 1018.03 1018.01 1017.97 1018.04 1018.22 1018.04 1018.03 1018.10 1018.16 1018.33
1011.78 1009.90 1009.98 1008.47 1007.69 1006.77 1004.99 1002.83 1002.61 1003.86 1004.93 1005.66 1006.59 1007.45 1008.21 1008.92 1009.56 1010.03 1010.58 1011.20 1012.01 1012.68 1013.13 1013.84 1014.63 1015.26 1015.78 1016.18 1016.47 1016.54 1017.02 1017.74 1017.94 1017.07 1017.57 1017.36 1017.49 1017.63 1017.41 1017.17 1016.90 1017.14 1017.36
1011.56 1011.04 1009.28 1009.30 1008.36 1007.01 1006.87 1004.41 1003.27 1003.67 1004.71 1005.65 1006.43 1007.24 1007.90 1008.53 1009.14 1009.78 1010.38 1010.88 1011.38 1011.89 1012.28 1012.84 1013.44 1013.94 1014.54 1015.03 1015.45 1015.97 1016.33 1016.53 1016.54 1016.67 1017.22 1017.38 1017.16 1016.91 1016.56 1016.59 1016.49 1016.60 1016.70
1011.48 1010.88 1010.50 1010.03 1007.41 1007.30 1007.13 1005.70 1004.27 1004.40 1005.29 1006.12 1006.88 1007.18 1007.76 1008.40 1008.89 1009.54 1010.06 1010.56 1010.96 1011.44 1011.86 1012.34 1012.73 1013.16 1013.42 1013.84 1014.44 1014.72 1015.10 1015.52 1016.00 1016.17 1016.40 1016.83 1016.47 1016.36 1015.96 1015.97 1016.00 1016.06 1016.11
1011.82 1010.96 1010.96 1009.87 1009.06 1008.76 1008.50 1007.00 1005.35 1005.65 1006.16 1006.51 1007.17 1007.66 1008.16 1008.72 1009.06 1009.35 1009.74 1010.35 1010.68 1010.99 1011.38 1011.81 1012.14 1012.55 1012.93 1013.17 1013.56 1014.29 1014.79 1015.38 1015.62 1015.82 1016.02 1016.22 1016.22 1016.25 1016.07 1015.79 1015.57 1015.57 1015.81
1011.98 1011.57 1011.00 1010.23 1009.47 1009.24 1007.81 1006.96 1006.42 1006.69 1006.66 1006.84 1007.29 1008.04 1008.46 1008.55 1008.96 1009.40 1009.83 1010.06 1010.32 1010.77 1011.23 1011.62 1012.03 1012.37 1012.63 1012.79 1013.04 1013.31 1013.73 1014.33 1014.80 1015.36 1015.26 1015.92 1015.98 1016.26 1016.24 1015.79 1015.67 1015.68 1015.51
Wind_Speed
9 8 7 6 5 6 6 5 5 5 5 5 4 5 6 5 4 3 2 12 5 12 18 19 19 18 17 17 15 9 9 12 11 10 13 9 8 9 8 7 8 7 7
7 7 6 7 6 6 5 7 7 5 5 4 4 4 5 5 5 5 3 4 14 7 11 15 15 14 13 11 11 10 9 11 12 10 10 7 8 8 6 6 6 6 7
9 8 7 7 6 5 6 6 5 4 4 3 5 4 5 5 4 5 4 2 4 10 11 13 13 12 10 10 10 11 12 13 13 10 9 7 7 8 6 6 5 5 6
10 10 8 7 7 6 6 6 6 5 5 4 4 4 4 4 5 5 5 4 3 3 5 10 11 10 10 9 10 11 15 14 12 11 7 5 7 7 6 6 5 5 5
11 9 9 7 8 7 7 7 5 6 5 4 5 4 3 4 5 4 5 6 6 5 3 4 8 8 9 11 12 15 17 18 13 9 8 8 7 7 7 6 6 5 5
13 10 8 9 9 8 8 7 9 6 5 6 5 3 2 1 3 5 6 4 4 5 4 5 3 5 9 9 9 17 18 17 15 13 11 9 8 7 7 7 6 6 5
13 11 9 9 9 10 12 12 7 10 3 7 5 3 3 2 1 1 3 5 6 5 5 4 4 4 3 7 6 16 17 15 16 14 13 12 10 9 8 7 6 6 5
9 13 12 10 12 9 10 12 11 7 4 9 5 5 2 2 1 1 1 3 4 4 5 6 5 6 4 3 5 14 15 15 15 16 15 13 11 10 9 8 7 7 5
6 12 14 13 13 12 11 14 13 15 8 8 8 6 4 5 3 1 3 3 4 3 4 5 5 5 5 5 6 9 11 11 14 15 15 14 13 11 10 9 9 8 7
8 8 12 13 14 11 13 13 13 13 13 11 4 5 2 6 4 3 2 2 3 5 4 4 5 5 5 4 6 10 13 11 15 15 15 16 13 13 12 11 10 10 9
10 9 9 12 13 11 13 15 15 14 12 11 11 5 2 1 2 3 4 5 1 3 3 4 4 5 6 5 5 8 14 14 17 15 15 16 16 15 12 13 12 11 10
11 9 9 10 12 13 15 14 15 17 14 12 11 9 7 5 3 3 2 7 9 2 3 4 4 4 4 5 7 10 16 16 17 18 17 16 16 17 15 13 12 12 12
9 12 11 12 12 14 14 14 15 15 15 14 14 12 9 8 6 3 3 2 2 1 1 3 4 4 4 4 6 11 14 17 17 19 19 18 17 16 16 17 16 16 15
10 15 17 14 15 16 15 15 13 13 15 14 16 13 11 10 8 6 4 6 3 2 1 5 3 6 5 5 5 10 6 14 17 19 20 19 15 15 17 18 18 17 17
11 14 18 14 15 18 18 17 12 14 14 15 14 14 12 11 9 9 6 7 6 6 7 4 3 6 7 5 7 6 6 10 14 15 17 16 14 11 13 16 18 18 18
14 13 16 13 15 16 17 16 13 15 15 12 11 16 14 11 11 8 8 8 7 4 4 8 7 4 6 5 7 8 9 8 13 17 17 15 15 13 10 11 16 19 19
15 14 15 13 17 18 15 15 14 14 16 15 14 15 15 13 10 10 8 8 8 7 7 4 5 5 5 5 5 5 5 6 5 16 19 19 18 16 16 13 14 17 19
15 15 14 12 15 18 18 17 16 15 17 16 15 15 14 10 12 11 9 10 9 7 4 8 6 4 5 4 3 4 5 6 7 12 18 18 18 19 19 18 17 16 20
14 16 12 13 11 15 17 18 17 16 16 15 14 15 14 14 13 10 10 9 9 7 7 3 4 2 2 2 1 2 4 5 5 10 14 17 19 20 21 20 19 19 20
12 15 13 14 12 13 16 17 16 15 14 13 13 12 12 13 12 11 10 10 8 8 6 5 3 3 2 2 1 3 4 4 5 4 9 11 12 17 19 21 22 20 20
12 12 10 13 13 12 11 14 16 15 14 13 12 10 9 10 11 12 8 8 8 7 5 5 4 3 4 3 4 3 4 2 3 5 3 5 6 6 9 17 16 18 22
12 11 12 11 12 9 26 14 15 12 12 12 11 9 8 13 13 14 14 12 11 10 9 7 6 4 6 5 4 4 3 3 3 3 5 6 5 7 8 8 16 20 21
10 10 12 12 9 11 22 18 10 11 9 8 9 9 7 6 9 8 12 15 14 13 10 9 8 7 7 8 5 5 6 5 6 3 4 3 4 6 7 7 15 16 19
10 10 9 11 10 10 22 19 14 9 9 8 6 7 5 6 7 8 7 7 6 6 6 4 5 6 5 7 8 7 7 4 2 1 3 4 4 4 3 5 13 16 17
8 8 9 10 9 7 14 13 12 6 7 8 6 5 5 4 4 6 6 6 6 6 7 12 10 9 9 9 8 4 4 4 4 4 5 2 3 2 2 2 4 14 16
8 6 8 6 9 7 13 14 11 3 5 5 5 5 4 3 2 1 2 4 5 5 6 4 4 5 8 8 11 9 6 6 4 0 5 6 3 3 3 1 2 3 6
Wind_Direction
177 162 166 169 174 163 160 151 146 149 153 149 159 173 148 140 137 127 108 116 76 138 147 152 156 158 145 145 143 137 139 125 112 115 117 118 114 112 107 105 101 101 94
188 175 171 179 174 171 177 157 160 158 161 152 173 202 153 148 140 147 137 146 144 145 142 148 143 144 135 140 135 145 167 142 128 123 115 121 127 117 121 112 106 101 93
185 169 177 177 178 169 164 142 137 132 143 157 179 202 153 179 166 155 151 149 151 154 165 165 159 150 163 160 169 166 162 149 130 128 125 131 137 130 131 118 123 112 104
197 194 182 186 168 166 172 174 159 154 164 165 160 205 169 173 182 174 156 162 163 146 181 194 196 185 199 176 183 190 169 155 145 153 157 167 158 155 156 141 130 119 111
197 193 198 191 169 169 176 169 172 162 169 175 170 197 162 184 182 169 172 163 174 151 169 205 188 175 188 185 197 182 169 145 156 163 167 188 177 165 163 155 145 136 127
199 193 198 193 171 171 176 172 180 182 177 170 165 117 82 240 184 181 167 157 173 172 180 194 126 193 189 210 189 177 168 167 162 170 164 192 189 182 175 169 162 154 155
190 195 197 187 179 182 182 183 177 176 138 154 116 62 49 22 164 170 171 179 176 181 183 178 190 189 193 204 172 189 172 175 171 177 178 184 195 195 187 188 179 175 171
202 187 191 194 184 181 185 182 178 175 158 174 154 125 125 334 328 109 212 198 213 164 184 190 195 187 182 168 178 186 187 183 182 178 184 188 192 199 198 195 194 191 192
229 189 193 189 190 188 186 184 182 182 174 192 174 145 141 205 145 177 219 206 192 190 222 168 191 190 188 178 179 180 179 186 196 191 185 192 195 201 207 207 207 204 203
242 215 195 190 190 190 190 189 187 187 181 178 179 191 111 142 170 181 235 235 220 209 215 194 181 193 183 183 176 175 182 182 204 205 196 195 200 203 210 214 216 214 211
256 231 208 191 193 191 191 188 188 191 188 180 187 143 127 53 108 143 184 196 260 228 217 241 189 184 183 181 186 189 181 189 201 207 216 206 202 203 215 218 219 220 219
300 234 217 206 201 199 190 189 190 192 187 193 190 184 168 162 166 143 131 188 208 199 207 222 220 205 191 189 194 192 184 187 200 211 220 217 220 213 209 219 225 225 227
306 293 231 219 211 207 198 189 189 193 190 188 187 187 178 194 145 136 142 116 126 96 255 235 228 209 201 193 203 191 196 192 201 211 218 226 224 219 221 215 217 225 224
303 299 285 226 219 207 197 190 192 190 191 194 188 189 189 185 171 170 156 141 135 182 164 262 222 216 206 198 203 200 203 205 204 212 222 230 233 218 217 220 226 223 223
307 307 297 242 221 212 197 189 187 189 192 194 193 188 193 190 182 174 169 156 149 167 204 222 246 223 210 178 192 190 205 213 213 217 225 234 242 248 228 218 221 221 218
314 312 294 249 222 214 197 184 189 191 189 191 190 190 194 193 185 187 183 181 182 162 186 201 210 210 227 195 190 192 213 207 216 221 225 230 237 241 239 238 225 221 216
320 328 306 313 219 216 198 187 191 190 193 189 190 187 190 183 184 188 184 179 190 187 202 194 203 178 195 200 179 189 191 206 220 225 229 229 232 234 235 233 229 225 215
329 321 319 317 239 212 194 190 188 188 190 187 184 179 186 171 183 184 179 186 184 189 176 213 194 190 191 201 176 182 199 213 220 227 230 233 231 231 233 232 228 225 218
328 308 352 336 329 226 193 190 191 183 186 184 178 179 180 176 181 178 182 186 187 190 184 170 196 89 131 128 134 178 198 216 221 237 232 231 233 236 236 235 230 224 219
314 335 352 347 345 340 193 179 173 174 174 171 170 174 173 178 179 176 180 179 176 176 162 191 158 166 141 175 144 200 237 207 241 215 232 235 238 240 246 240 230 222 218
326 332 339 358 359 359 333 167 166 164 161 160 158 159 168 173 183 182 174 179 184 184 170 174 155 154 170 169 200 184 214 221 247 217 225 230 228 235 239 244 240 222 219
324 354 338 351 358 359 345 350 132 146 155 160 158 159 169 176 184 180 168 174 185 189 190 188 187 181 198 190 184 192 171 172 270 205 194 250 175 225 237 227 227 228 220
337 334 350 337 339 3 337 353 71 101 110 118 138 152 154 166 170 183 187 188 194 195 186 187 196 184 189 195 185 194 202 187 224 199 148 249 193 229 232 236 234 230 225
329 343 348 315 0 349 341 352 40 80 90 90 97 93 122 158 165 168 172 186 187 191 203 195 193 200 193 185 198 211 216 220 32 147 159 234 174 230 210 219 232 232 227
320 340 328 330 339 324 331 354 47 48 86 91 87 86 98 104 88 162 176 185 191 203 207 213 215 209 205 195 186 194 201 179 233 216 199 206 209 264 296 253 226 235 235
313 309 313 309 325 324 343 5 24 3 76 91 88 96 93 106 130 264 276 199 202 200 194 187 209 212 212 216 206 207 198 208 205 55 217 188 157 165 283 286 326 274 241